OBJECT C, 63293

Orbit data source: Space-Track

You're viewing an Uncataloged Satellite

Recently launched and/or uncataloged satellites may have evolving metadata. Metadata may include but not limited to: Owner, Maufacturer, Bus, Motor, and Mission.

OBJECT C, 63293 is a Chinese satellite in SSO that was launched on Mon, 17 Mar 2025 UTC via a GUSHENXING 1 launch vehicle from the Jiuquan Satellite Launch Center, China (JSC). Unknown objects in Earth's orbit typically refer to objects detected orbiting the Earth but have not yet been identified or cataloged. These objects could be anything from previously untracked satellites, spent rocket stages, debris from satellite collisions, or even natural meteoroids temporarily captured by Earth's gravity.

Loading next visibility...
Identifier
63293, 2025-055C
Orbit
SSO
Country
Flag of CNCN / PRC
Related business
None
Manufacturer
Unknown
Mission
Operational Commercial Meteo Radio Occ.
Bus & Motor
Unknown
Mass
Unknown
Launch date (UTC)
2025-03-17 (9 months ago)
Launch vehicle
GUSHENXING 1
Launch site
Jiuquan Satellite Launch Center, China (JSC)
Object type
Unknown
Shape & HBR
Box + 1 Pan, 0.6 m
Radar Cross Section
5.339 m², Medium (>0.1 m² and < 1m²)

Expand to show TLE details & history
Last TLE update: 5 hours ago

TLE from 5 hours ago
0 OBJECT C
1 63293U 25055C   25351.62545101  .00008747  00000-0  45302-3 0  9993
2 63293  97.6286 126.5399 0012608  69.3086 290.9497 15.16378663 41581
Epoch: 2025-12-17T15:00Z
TLE epoch observation values (Epoch: 2025-12-17T15:00:38.967Z)
Latitude
Longitude
174.88492°
Altitude
516.776 km
Speed
7.607 km/s
True Right ascension
08h 26m 09s
True Declination
0° 00' 00"
Sunlit
Object was in full shadow at epoch
Visualization orbit readout
Latitude
Unknown
Longitude
Unknown
Altitude
Unknown
Speed
Unknown
Apparent Right ascension
Unknown
Apparent Declination
Unknown
Sunlit
N/A
Visualization observer readout
Local Sidereal Time
19:12:41
Azimuth
Unknown
Elevation
Unknown
Doppler factor
Unknown
Orbital elements
Apogee altitude
522.466 km
Perigee altitude
505.087 km
Semi-major axis
6,891.914 km
Eccentricity
0.00126
Inclination
97.6286°
RAAN
126.5399°
Arg. of periapsis
69.3086°
True anomaly
290.8147°
Mean anomaly
290.9497°
Eccentric anomaly
290.88221°
Mean motion
3.79344 °/min
Orbital period
94.9 mins
BSTAR
0.00045302
Loading maneuver chart data...
Computing Atmospheric mass density...
Loading historical data...
Loading historical data...
Loading historical data...
Loading historical data...
Loading historical data...
Loading historical data...
Loading historical data...

Documentation

Showing up to 5 results
|